Harlingen, TX

10:19 PM CDT on March 22, 2017 (GMT -0500)
Valley International

Weather History for KHRL - April, 2014

Change the Weather History Date:

Wednesday, April 16, 2014

  Actual Average Record
Temperature  
Mean Temperature 60 °F 76 °F  
Max Temperature 77 °F 86 °F 100 °F (1920)
Min Temperature 43 °F 65 °F 43 °F (2014)
Degree Days  
Heating Degree Days 5 0  
Month to date heating degree days 12 7  
Since 1 July heating degree days 930 621  
Cooling Degree Days 0 11  
Month to date cooling degree days 125 151  
Year to date cooling degree days 348 446  
Growing Degree Days 10 (Base 50)    
Moisture  
Dew Point 49 °F    
Average Humidity 68    
Maximum Humidity 92    
Minimum Humidity 43    
Precipitation  
Precipitation 0.00 in 0.07 in 2.77 in (2010)
Month to date precipitation 0.09 0.91  
Year to date precipitation 2.87 4.67  
Sea Level Pressure  
Sea Level Pressure 30.03 in    
Wind  
Wind Speed 10 mph (SE)    
Max Wind Speed 23 mph    
Max Gust Speed 26 mph    
Visibility 10 miles    
Events      
T = Trace of Precipitation, MM = Missing Value Source: NWS Daily Summary

Daily Weather History Graph

Daily Weather History Graph

Search for Another Location

Airport or City:

Trip Planner

Search our weather history database for the weather conditions in past years. The results will help you decide how hot, cold, wet, or windy it might be!

Date:

Astronomy

Apr. 16, 2014 Rise Set
Actual Time 7:06 AM CDT 7:54 PM CDT
Civil Twilight 6:42 AM CDT 8:18 PM CDT
Nautical Twilight 6:14 AM CDT 8:46 PM CDT
Astronomical Twilight 5:46 AM CDT 9:14 PM CDT
Moon 9:31 PM CDT (4/16) 8:00 AM CDT (4/16)
Length of Visible Light 13h 35m
Length of Day
12h 48m
Full, 98% of the Moon is Illuminated
Apr 16
Full
Apr 22
Last Quarter
Apr 29
New
May 6
First Quarter
May 14
Full

Hourly Weather History & Observations

Time (CDT) Temp. Windchill Dew Point Humidity Pressure Visibility Wind Dir Wind Speed Gust Speed Precip Events Conditions
12:52 AM 46.0 °F 42.5 °F 37.0 °F 71% 30.17 in 10.0 mi ESE 6.9 mph - N/A   Clear
1:52 AM 45.0 °F 41.2 °F 37.9 °F 76% 30.14 in 10.0 mi East 6.9 mph - N/A   Clear
2:52 AM 45.0 °F 41.8 °F 39.0 °F 80% 30.12 in 10.0 mi ESE 5.8 mph - N/A   Clear
3:52 AM 45.0 °F - 39.9 °F 82% 30.12 in 10.0 mi Calm Calm - N/A   Clear
4:52 AM 46.0 °F - 41.0 °F 83% 30.09 in 10.0 mi Calm Calm - N/A   Clear
5:52 AM 45.0 °F - 42.1 °F 90% 30.07 in 10.0 mi Calm Calm - N/A   Clear
6:52 AM 45.0 °F - 42.1 °F 90% 30.08 in 10.0 mi Calm Calm - N/A   Clear
7:52 AM 50.0 °F - 46.9 °F 89% 30.08 in 10.0 mi Calm Calm - N/A   Clear
8:52 AM 60.1 °F - 50.0 °F 69% 30.08 in 10.0 mi ESE 9.2 mph - N/A   Clear
9:52 AM 66.9 °F - 50.0 °F 54% 30.09 in 10.0 mi SE 12.7 mph 20.7 mph N/A   Clear
10:52 AM 71.1 °F - 51.1 °F 49% 30.09 in 10.0 mi SE 15.0 mph 25.3 mph N/A   Partly Cloudy
11:52 AM 73.0 °F - 50.0 °F 44% 30.08 in 10.0 mi ESE 18.4 mph - N/A   Partly Cloudy
12:52 PM 73.4 °F - 51.8 °F 47% 30.04 in 10.0 mi SE 16.1 mph 23.0 mph N/A   Partly Cloudy
1:52 PM 73.9 °F - 51.1 °F 45% 30.01 in 10.0 mi SSE 17.3 mph 21.9 mph N/A   Mostly Cloudy
2:52 PM 75.9 °F - 52.0 °F 43% 29.98 in 10.0 mi ESE 12.7 mph 25.3 mph N/A   Scattered Clouds
3:52 PM 73.9 °F - 51.1 °F 45% 29.96 in 10.0 mi SE 16.1 mph 23.0 mph N/A   Overcast
4:52 PM 75.9 °F - 53.1 °F 45% 29.93 in 10.0 mi SE 16.1 mph 24.2 mph N/A   Mostly Cloudy
5:52 PM 73.0 °F - 52.0 °F 48% 29.93 in 10.0 mi SE 18.4 mph 24.2 mph N/A   Mostly Cloudy
6:52 PM 71.1 °F - 54.0 °F 55% 29.93 in 10.0 mi SE 15.0 mph - N/A   Mostly Cloudy
7:52 PM 69.1 °F - 54.0 °F 58% 29.93 in 10.0 mi ESE 11.5 mph - N/A   Mostly Cloudy
8:52 PM 66.0 °F - 55.0 °F 68% 29.95 in 10.0 mi ESE 10.4 mph - N/A   Clear
9:52 PM 64.9 °F - 55.9 °F 73% 29.96 in 10.0 mi ESE 8.1 mph - N/A   Clear
10:52 PM 64.0 °F - 55.9 °F 75% 29.97 in 10.0 mi ESE 6.9 mph - N/A   Clear
11:52 PM 62.1 °F - 57.0 °F 84% 29.97 in 10.0 mi SE 5.8 mph - N/A   Clear